Year,Month,Day,Hour,Minute,Value (Times are PST for temperature in C)
2014,06,14,00,00,14.70
2014,06,14,00,01,14.70
2014,06,14,00,02,14.70
2014,06,14,00,03,14.70
2014,06,14,00,04,14.70
2014,06,14,00,05,14.70
2014,06,14,00,06,14.70
2014,06,14,00,07,14.70
2014,06,14,00,08,14.70
2014,06,14,00,09,14.70
2014,06,14,00,10,14.70
2014,06,14,00,11,14.60
2014,06,14,00,12,14.60
2014,06,14,00,13,14.60
2014,06,14,00,14,14.60
2014,06,14,00,15,14.60
2014,06,14,00,16,14.60
2014,06,14,00,17,14.60
2014,06,14,00,18,14.60
2014,06,14,00,19,14.60
2014,06,14,00,20,14.60
2014,06,14,00,21,14.60
2014,06,14,00,22,14.60
2014,06,14,00,23,14.60
2014,06,14,00,24,14.60
2014,06,14,00,25,14.50
2014,06,14,00,26,14.50
2014,06,14,00,27,14.50
2014,06,14,00,28,14.50
2014,06,14,00,29,14.40
2014,06,14,00,30,14.40
2014,06,14,00,31,14.40
2014,06,14,00,32,14.40
2014,06,14,00,33,14.40
2014,06,14,00,34,14.40
2014,06,14,00,35,14.40
2014,06,14,00,36,14.40
2014,06,14,00,37,14.40
2014,06,14,00,38,14.40
2014,06,14,00,39,14.40
2014,06,14,00,40,14.40
2014,06,14,00,41,14.30
2014,06,14,00,42,14.30
2014,06,14,00,43,14.30
2014,06,14,00,44,14.30
2014,06,14,00,45,14.30
2014,06,14,00,46,14.30
2014,06,14,00,47,14.30
2014,06,14,00,48,14.30
2014,06,14,00,49,14.30
2014,06,14,00,50,14.30
2014,06,14,00,51,14.30
2014,06,14,00,52,14.30
2014,06,14,00,53,14.30
2014,06,14,00,54,14.30
2014,06,14,00,55,14.30
2014,06,14,00,56,14.30
2014,06,14,00,57,14.30
2014,06,14,00,58,14.30
2014,06,14,00,59,14.30
2014,06,14,01,00,14.30
2014,06,14,01,01,14.30
2014,06,14,01,02,14.30
2014,06,14,01,03,14.30
2014,06,14,01,04,14.30
2014,06,14,01,05,14.30
2014,06,14,01,06,14.30
2014,06,14,01,07,14.30
2014,06,14,01,08,14.30
2014,06,14,01,09,14.20
2014,06,14,01,10,14.20
2014,06,14,01,11,14.20
2014,06,14,01,12,14.20
2014,06,14,01,13,14.20
2014,06,14,01,14,14.20
2014,06,14,01,15,14.20
2014,06,14,01,16,14.20
2014,06,14,01,17,14.20
2014,06,14,01,18,14.20
2014,06,14,01,19,14.10
2014,06,14,01,20,14.10
2014,06,14,01,21,14.10
2014,06,14,01,22,14.10
2014,06,14,01,23,14.10
2014,06,14,01,24,14.10
2014,06,14,01,25,14.00
2014,06,14,01,26,14.00
2014,06,14,01,27,14.00
2014,06,14,01,28,14.00
2014,06,14,01,29,14.00
2014,06,14,01,30,13.90
2014,06,14,01,31,13.90
2014,06,14,01,32,13.90
2014,06,14,01,33,13.90
2014,06,14,01,34,13.90
2014,06,14,01,35,13.90
2014,06,14,01,36,13.90
2014,06,14,01,37,13.90
2014,06,14,01,38,13.90
2014,06,14,01,39,13.80
2014,06,14,01,40,13.80
2014,06,14,01,41,13.80
2014,06,14,01,42,13.80
2014,06,14,01,43,13.80
2014,06,14,01,44,13.80
2014,06,14,01,45,13.80
2014,06,14,01,46,13.80
2014,06,14,01,47,13.80
2014,06,14,01,48,13.80
2014,06,14,01,49,13.80
2014,06,14,01,50,13.70
2014,06,14,01,51,13.70
2014,06,14,01,52,13.70
2014,06,14,01,53,13.70
2014,06,14,01,54,13.70
2014,06,14,01,55,13.70
2014,06,14,01,56,13.70
2014,06,14,01,57,13.70
2014,06,14,01,58,13.70
2014,06,14,01,59,13.70
2014,06,14,02,00,13.70
2014,06,14,02,01,13.70
2014,06,14,02,02,13.70
2014,06,14,02,03,13.70
2014,06,14,02,04,13.70
2014,06,14,02,05,13.70
2014,06,14,02,06,13.70
2014,06,14,02,07,13.70
2014,06,14,02,08,13.70
2014,06,14,02,09,13.60
2014,06,14,02,10,13.60
2014,06,14,02,11,13.60
2014,06,14,02,12,13.60
2014,06,14,02,13,13.60
2014,06,14,02,14,13.60
2014,06,14,02,15,13.50
2014,06,14,02,16,13.50
2014,06,14,02,17,13.40
2014,06,14,02,18,13.40
2014,06,14,02,19,13.40
2014,06,14,02,20,13.40
2014,06,14,02,21,13.40
2014,06,14,02,22,13.40
2014,06,14,02,23,13.30
2014,06,14,02,24,13.30
2014,06,14,02,25,13.30
2014,06,14,02,26,13.30
2014,06,14,02,27,13.30
2014,06,14,02,28,13.30
2014,06,14,02,29,13.30
2014,06,14,02,30,13.30
2014,06,14,02,31,13.30
2014,06,14,02,32,13.30
2014,06,14,02,33,13.20
2014,06,14,02,34,13.20
2014,06,14,02,35,13.20
2014,06,14,02,36,13.20
2014,06,14,02,37,13.20
2014,06,14,02,38,13.20
2014,06,14,02,39,13.20
2014,06,14,02,40,13.20
2014,06,14,02,41,13.20
2014,06,14,02,42,13.20
2014,06,14,02,43,13.20
2014,06,14,02,44,13.10
2014,06,14,02,45,13.10
2014,06,14,02,46,13.10
2014,06,14,02,47,13.10
2014,06,14,02,48,13.10
2014,06,14,02,49,13.20
2014,06,14,02,50,13.20
2014,06,14,02,51,13.20
2014,06,14,02,52,13.20
2014,06,14,02,53,13.20
2014,06,14,02,54,13.20
2014,06,14,02,55,13.30
2014,06,14,02,56,13.30
2014,06,14,02,57,13.30
2014,06,14,02,58,13.30
2014,06,14,02,59,13.30
2014,06,14,03,00,13.30
2014,06,14,03,01,13.30
2014,06,14,03,02,13.30
2014,06,14,03,03,13.30
2014,06,14,03,04,13.30
2014,06,14,03,05,13.20
2014,06,14,03,06,13.20
2014,06,14,03,07,13.20
2014,06,14,03,08,13.20
2014,06,14,03,09,13.20
2014,06,14,03,10,13.20
2014,06,14,03,11,13.20
2014,06,14,03,12,13.20
2014,06,14,03,13,13.20
2014,06,14,03,14,13.10
2014,06,14,03,15,13.10
2014,06,14,03,16,13.10
2014,06,14,03,17,13.00
2014,06,14,03,18,13.00
2014,06,14,03,19,13.00
2014,06,14,03,20,13.00
2014,06,14,03,21,12.90
2014,06,14,03,22,12.90
2014,06,14,03,23,12.90
2014,06,14,03,24,12.90
2014,06,14,03,25,12.90
2014,06,14,03,26,12.90
2014,06,14,03,27,12.90
2014,06,14,03,28,12.90
2014,06,14,03,29,12.90
2014,06,14,03,30,12.90
2014,06,14,03,31,12.90
2014,06,14,03,32,12.80
2014,06,14,03,33,12.80
2014,06,14,03,34,12.80
2014,06,14,03,35,12.80
2014,06,14,03,36,12.70
2014,06,14,03,37,12.70
2014,06,14,03,38,12.70
2014,06,14,03,39,12.70
2014,06,14,03,40,12.70
2014,06,14,03,41,12.60
2014,06,14,03,42,12.60
2014,06,14,03,43,12.60
2014,06,14,03,44,12.60
2014,06,14,03,45,12.60
2014,06,14,03,46,12.60
2014,06,14,03,47,12.60
2014,06,14,03,48,12.60
2014,06,14,03,49,12.50
2014,06,14,03,50,12.50
2014,06,14,03,51,12.50
2014,06,14,03,52,12.50
2014,06,14,03,53,12.50
2014,06,14,03,54,12.40
2014,06,14,03,55,12.40
2014,06,14,03,56,12.40
2014,06,14,03,57,12.40
2014,06,14,03,58,12.40
2014,06,14,03,59,12.40
2014,06,14,04,00,12.30
2014,06,14,04,01,12.30
2014,06,14,04,02,12.30
2014,06,14,04,03,12.30
2014,06,14,04,04,12.30
2014,06,14,04,05,12.30
2014,06,14,04,06,12.30
2014,06,14,04,07,12.30
2014,06,14,04,08,12.30
2014,06,14,04,09,12.30
2014,06,14,04,10,12.20
2014,06,14,04,11,12.20
2014,06,14,04,12,12.20
2014,06,14,04,13,12.20
2014,06,14,04,14,12.20
2014,06,14,04,15,12.20
2014,06,14,04,16,12.20
2014,06,14,04,17,12.20
2014,06,14,04,18,12.20
2014,06,14,04,19,12.20
2014,06,14,04,20,12.20
2014,06,14,04,21,12.20
2014,06,14,04,22,12.10
2014,06,14,04,23,12.10
2014,06,14,04,24,12.10
2014,06,14,04,25,12.10
2014,06,14,04,26,12.10
2014,06,14,04,27,12.10
2014,06,14,04,28,12.10
2014,06,14,04,29,12.10
2014,06,14,04,30,12.10
2014,06,14,04,31,12.00
2014,06,14,04,32,12.00
2014,06,14,04,33,12.00
2014,06,14,04,34,12.00
2014,06,14,04,35,12.00
2014,06,14,04,36,12.00
2014,06,14,04,37,12.00
2014,06,14,04,38,11.90
2014,06,14,04,39,11.90
2014,06,14,04,40,11.90
2014,06,14,04,41,11.90
2014,06,14,04,42,11.90
2014,06,14,04,43,11.90
2014,06,14,04,44,11.90
2014,06,14,04,45,11.90
2014,06,14,04,46,11.90
2014,06,14,04,47,11.90
2014,06,14,04,48,11.90
2014,06,14,04,49,11.90
2014,06,14,04,50,11.90
2014,06,14,04,51,11.80
2014,06,14,04,52,11.80
2014,06,14,04,53,11.80
2014,06,14,04,54,11.80
2014,06,14,04,55,11.80
2014,06,14,04,56,11.80
2014,06,14,04,57,11.80
2014,06,14,04,58,11.80
2014,06,14,04,59,11.80
2014,06,14,05,00,11.80
2014,06,14,05,01,11.80
2014,06,14,05,02,11.80
2014,06,14,05,03,11.80
2014,06,14,05,04,11.70
2014,06,14,05,05,11.70
2014,06,14,05,06,11.70
2014,06,14,05,07,11.70
2014,06,14,05,08,11.70
2014,06,14,05,09,11.70
2014,06,14,05,10,11.70
2014,06,14,05,11,11.70
2014,06,14,05,12,11.60
2014,06,14,05,13,11.60
2014,06,14,05,14,11.60
2014,06,14,05,15,11.60
2014,06,14,05,16,11.60
2014,06,14,05,17,11.60
2014,06,14,05,18,11.60
2014,06,14,05,19,11.60
2014,06,14,05,20,11.60
2014,06,14,05,21,11.60
2014,06,14,05,22,11.60
2014,06,14,05,23,11.60
2014,06,14,05,24,11.60
2014,06,14,05,25,11.60
2014,06,14,05,26,11.60
2014,06,14,05,27,11.60
2014,06,14,05,28,11.60
2014,06,14,05,29,11.60
2014,06,14,05,30,11.60
2014,06,14,05,31,11.60
2014,06,14,05,32,11.60
2014,06,14,05,33,11.60
2014,06,14,05,34,11.50
2014,06,14,05,35,11.50
2014,06,14,05,36,11.50
2014,06,14,05,37,11.50
2014,06,14,05,38,11.50
2014,06,14,05,39,11.50
2014,06,14,05,40,11.50
2014,06,14,05,41,11.50
2014,06,14,05,42,11.50
2014,06,14,05,43,11.40
2014,06,14,05,44,11.40
2014,06,14,05,45,11.50
2014,06,14,05,46,11.40
2014,06,14,05,47,11.40
2014,06,14,05,48,11.40
2014,06,14,05,49,11.40
2014,06,14,05,50,11.40
2014,06,14,05,51,11.40
2014,06,14,05,52,11.40
2014,06,14,05,53,11.40
2014,06,14,05,54,11.40
2014,06,14,05,55,11.40
2014,06,14,05,56,11.40
2014,06,14,05,57,11.40
2014,06,14,05,58,11.40
2014,06,14,05,59,11.40
2014,06,14,06,00,11.40
2014,06,14,06,01,11.40
2014,06,14,06,02,11.40
2014,06,14,06,03,11.40
2014,06,14,06,04,11.40
2014,06,14,06,05,11.40
2014,06,14,06,06,11.40
2014,06,14,06,07,11.40
2014,06,14,06,08,11.40
2014,06,14,06,09,11.40
2014,06,14,06,10,11.40
2014,06,14,06,11,11.40
2014,06,14,06,12,11.50
2014,06,14,06,13,11.50
2014,06,14,06,14,11.50
2014,06,14,06,15,11.50
2014,06,14,06,16,11.50
2014,06,14,06,17,11.60
2014,06,14,06,18,11.60
2014,06,14,06,19,11.60
2014,06,14,06,20,11.60
2014,06,14,06,21,11.60
2014,06,14,06,22,11.60
2014,06,14,06,23,11.60
2014,06,14,06,24,11.60
2014,06,14,06,25,11.60
2014,06,14,06,26,11.60
2014,06,14,06,27,11.70
2014,06,14,06,28,11.70
2014,06,14,06,29,11.70
2014,06,14,06,30,11.70
2014,06,14,06,31,11.70
2014,06,14,06,32,11.70
2014,06,14,06,33,11.70
2014,06,14,06,34,11.70
2014,06,14,06,35,11.70
2014,06,14,06,36,11.70
2014,06,14,06,37,11.70
2014,06,14,06,38,11.70
2014,06,14,06,39,11.70
2014,06,14,06,40,11.70
2014,06,14,06,41,11.70
2014,06,14,06,42,11.70
2014,06,14,06,43,11.70
2014,06,14,06,44,11.70
2014,06,14,06,45,11.70
2014,06,14,06,46,11.70
2014,06,14,06,47,11.80
2014,06,14,06,48,11.80
2014,06,14,06,49,11.80
2014,06,14,06,50,11.80
2014,06,14,06,51,11.80
2014,06,14,06,52,11.80
2014,06,14,06,53,11.80
2014,06,14,06,54,11.80
2014,06,14,06,55,11.80
2014,06,14,06,56,11.80
2014,06,14,06,57,11.80
2014,06,14,06,58,11.80
2014,06,14,06,59,11.80
2014,06,14,07,00,11.80
2014,06,14,07,01,11.80
2014,06,14,07,02,11.80
2014,06,14,07,03,11.80
2014,06,14,07,04,11.90
2014,06,14,07,05,11.90
2014,06,14,07,06,11.90
2014,06,14,07,07,11.90
2014,06,14,07,08,11.90
2014,06,14,07,09,12.00
2014,06,14,07,10,12.00
2014,06,14,07,11,12.00
2014,06,14,07,12,12.10
2014,06,14,07,13,12.10
2014,06,14,07,14,12.10
2014,06,14,07,15,12.10
2014,06,14,07,16,12.10
2014,06,14,07,17,12.10
2014,06,14,07,18,12.20
2014,06,14,07,19,12.20
2014,06,14,07,20,12.20
2014,06,14,07,21,12.20
2014,06,14,07,22,12.30
2014,06,14,07,23,12.30
2014,06,14,07,24,12.30
2014,06,14,07,25,12.30
2014,06,14,07,26,12.40
2014,06,14,07,27,12.40
2014,06,14,07,28,12.40
2014,06,14,07,29,12.40
2014,06,14,07,30,12.40
2014,06,14,07,31,12.40
2014,06,14,07,32,12.50
2014,06,14,07,33,12.50
2014,06,14,07,34,12.50
2014,06,14,07,35,12.50
2014,06,14,07,36,12.60
2014,06,14,07,37,12.60
2014,06,14,07,38,12.60
2014,06,14,07,39,12.60
2014,06,14,07,40,12.60
2014,06,14,07,41,12.70
2014,06,14,07,42,12.70
2014,06,14,07,43,12.70
2014,06,14,07,44,12.70
2014,06,14,07,45,12.70
2014,06,14,07,46,12.70
2014,06,14,07,47,12.80
2014,06,14,07,48,12.80
2014,06,14,07,49,12.80
2014,06,14,07,50,12.80
2014,06,14,07,51,12.90
2014,06,14,07,52,12.90
2014,06,14,07,53,12.90
2014,06,14,07,54,12.90
2014,06,14,07,55,13.00
2014,06,14,07,56,13.00
2014,06,14,07,57,13.00
2014,06,14,07,58,13.10
2014,06,14,07,59,13.10
2014,06,14,08,00,13.10
2014,06,14,08,01,13.10
2014,06,14,08,02,13.20
2014,06,14,08,03,13.20
2014,06,14,08,04,13.20
2014,06,14,08,05,13.20
2014,06,14,08,06,13.20
2014,06,14,08,07,13.20
2014,06,14,08,08,13.20
2014,06,14,08,09,13.20
2014,06,14,08,10,13.10
2014,06,14,08,11,13.10
2014,06,14,08,12,13.10
2014,06,14,08,13,13.10
2014,06,14,08,14,13.00
2014,06,14,08,15,13.00
2014,06,14,08,16,13.00
2014,06,14,08,17,13.00
2014,06,14,08,18,13.00
2014,06,14,08,19,13.00
2014,06,14,08,20,13.00
2014,06,14,08,21,13.00
2014,06,14,08,22,13.10
2014,06,14,08,23,13.10
2014,06,14,08,24,13.10
2014,06,14,08,25,13.20
2014,06,14,08,26,13.20
2014,06,14,08,27,13.30
2014,06,14,08,28,13.40
2014,06,14,08,29,13.50
2014,06,14,08,30,13.50
2014,06,14,08,31,13.60
2014,06,14,08,32,13.60
2014,06,14,08,33,13.70
2014,06,14,08,34,13.70
2014,06,14,08,35,13.80
2014,06,14,08,36,13.80
2014,06,14,08,37,13.80
2014,06,14,08,38,13.90
2014,06,14,08,39,14.00
2014,06,14,08,40,14.10
2014,06,14,08,41,14.20
2014,06,14,08,42,14.30
2014,06,14,08,43,14.30
2014,06,14,08,44,14.40
2014,06,14,08,45,14.50
2014,06,14,08,46,14.60
2014,06,14,08,47,14.60
2014,06,14,08,48,14.70
2014,06,14,08,49,14.70
2014,06,14,08,50,14.70
2014,06,14,08,51,14.70
2014,06,14,08,52,14.70
2014,06,14,08,53,14.80
2014,06,14,08,54,14.80
2014,06,14,08,55,14.80
2014,06,14,08,56,14.90
2014,06,14,08,57,14.90
2014,06,14,08,58,15.00
2014,06,14,08,59,15.00
2014,06,14,09,00,15.00
2014,06,14,09,01,15.00
2014,06,14,09,02,14.90
2014,06,14,09,03,14.90
2014,06,14,09,04,14.80
2014,06,14,09,05,14.80
2014,06,14,09,06,14.80
2014,06,14,09,07,14.80
2014,06,14,09,08,14.70
2014,06,14,09,09,14.70
2014,06,14,09,10,14.70
2014,06,14,09,11,14.70
2014,06,14,09,12,14.70
2014,06,14,09,13,14.70
2014,06,14,09,14,14.70
2014,06,14,09,15,14.70
2014,06,14,09,16,14.70
2014,06,14,09,17,14.80
2014,06,14,09,18,14.80
2014,06,14,09,19,14.80
2014,06,14,09,20,14.80
2014,06,14,09,21,14.90
2014,06,14,09,22,14.90
2014,06,14,09,23,15.00
2014,06,14,09,24,15.00
2014,06,14,09,25,15.00
2014,06,14,09,26,15.10
2014,06,14,09,27,15.10
2014,06,14,09,28,15.10
2014,06,14,09,29,15.10
2014,06,14,09,30,15.10
2014,06,14,09,31,15.10
2014,06,14,09,32,15.10
2014,06,14,09,33,15.20
2014,06,14,09,34,15.20
2014,06,14,09,35,15.30
2014,06,14,09,36,15.40
2014,06,14,09,37,15.40
2014,06,14,09,38,15.50
2014,06,14,09,39,15.60
2014,06,14,09,40,15.70
2014,06,14,09,41,15.80
2014,06,14,09,42,16.00
2014,06,14,09,43,16.10
2014,06,14,09,44,16.10
2014,06,14,09,45,16.20
2014,06,14,09,46,16.20
2014,06,14,09,47,16.20
2014,06,14,09,48,16.20
2014,06,14,09,49,16.20
2014,06,14,09,50,16.20
2014,06,14,09,51,16.20
2014,06,14,09,52,16.20
2014,06,14,09,53,16.20
2014,06,14,09,54,16.20
2014,06,14,09,55,16.20
2014,06,14,09,56,16.20
2014,06,14,09,57,16.20
2014,06,14,09,58,16.30
2014,06,14,09,59,16.40
2014,06,14,10,00,16.50
2014,06,14,10,01,16.60
2014,06,14,10,02,16.60
2014,06,14,10,03,16.60
2014,06,14,10,04,16.70
2014,06,14,10,05,16.70
2014,06,14,10,06,16.70
2014,06,14,10,07,16.80
2014,06,14,10,08,16.80
2014,06,14,10,09,16.70
2014,06,14,10,10,16.70
2014,06,14,10,11,16.60
2014,06,14,10,12,16.60
2014,06,14,10,13,16.50
2014,06,14,10,14,16.40
2014,06,14,10,15,16.40
2014,06,14,10,16,16.40
2014,06,14,10,17,16.40
2014,06,14,10,18,16.40
2014,06,14,10,19,16.40
2014,06,14,10,20,16.30
2014,06,14,10,21,16.30
2014,06,14,10,22,16.40
2014,06,14,10,23,16.40
2014,06,14,10,24,16.40
2014,06,14,10,25,16.40
2014,06,14,10,26,16.50
2014,06,14,10,27,16.50
2014,06,14,10,28,16.60
2014,06,14,10,29,16.60
2014,06,14,10,30,16.60
2014,06,14,10,31,16.70
2014,06,14,10,32,16.80
2014,06,14,10,33,16.80
2014,06,14,10,34,16.90
2014,06,14,10,35,17.00
2014,06,14,10,36,17.00
2014,06,14,10,37,17.10
2014,06,14,10,38,17.10
2014,06,14,10,39,17.10
2014,06,14,10,40,17.20
2014,06,14,10,41,17.20
2014,06,14,10,42,17.20
2014,06,14,10,43,17.20
2014,06,14,10,44,17.20
2014,06,14,10,45,17.20
2014,06,14,10,46,17.20
2014,06,14,10,47,17.20
2014,06,14,10,48,17.10
2014,06,14,10,49,17.10
2014,06,14,10,50,17.10
2014,06,14,10,51,17.00
2014,06,14,10,52,17.00
2014,06,14,10,53,17.00
2014,06,14,10,54,17.00
2014,06,14,10,55,17.00
2014,06,14,10,56,17.00
2014,06,14,10,57,17.00
2014,06,14,10,58,17.00
2014,06,14,10,59,16.90
2014,06,14,11,00,17.00
2014,06,14,11,01,17.00
2014,06,14,11,02,17.00
2014,06,14,11,03,16.90
2014,06,14,11,04,16.90
2014,06,14,11,05,16.90
2014,06,14,11,06,16.90
2014,06,14,11,07,16.90
2014,06,14,11,08,16.90
2014,06,14,11,09,16.90
2014,06,14,11,10,16.90
2014,06,14,11,11,16.80
2014,06,14,11,12,16.80
2014,06,14,11,13,16.80
2014,06,14,11,14,16.80
2014,06,14,11,15,16.80
2014,06,14,11,16,16.80
2014,06,14,11,17,16.80
2014,06,14,11,18,16.80
2014,06,14,11,19,16.80
2014,06,14,11,20,16.80
2014,06,14,11,21,16.80
2014,06,14,11,22,16.80
2014,06,14,11,23,16.80
2014,06,14,11,24,16.80
2014,06,14,11,25,16.80
2014,06,14,11,26,16.80
2014,06,14,11,27,16.80
2014,06,14,11,28,16.80
2014,06,14,11,29,16.80
2014,06,14,11,30,16.80
2014,06,14,11,31,16.70
2014,06,14,11,32,16.70
2014,06,14,11,33,16.60
2014,06,14,11,34,16.60
2014,06,14,11,35,16.60
2014,06,14,11,36,16.60
2014,06,14,11,37,16.70
2014,06,14,11,38,16.70
2014,06,14,11,39,16.70
2014,06,14,11,40,16.70
2014,06,14,11,41,16.70
2014,06,14,11,42,16.70
2014,06,14,11,43,16.80
2014,06,14,11,44,16.80
2014,06,14,11,45,16.90
2014,06,14,11,46,17.00
2014,06,14,11,47,17.00
2014,06,14,11,48,17.00
2014,06,14,11,49,17.00
2014,06,14,11,50,16.90
2014,06,14,11,51,16.90
2014,06,14,11,52,16.90
2014,06,14,11,53,16.90
2014,06,14,11,54,16.90
2014,06,14,11,55,16.80
2014,06,14,11,56,16.80
2014,06,14,11,57,16.80
2014,06,14,11,58,16.80
2014,06,14,11,59,16.80
2014,06,14,12,00,16.80
2014,06,14,12,01,16.80
2014,06,14,12,02,16.80
2014,06,14,12,03,16.80
2014,06,14,12,04,16.80
2014,06,14,12,05,16.80
2014,06,14,12,06,16.80
2014,06,14,12,07,16.70
2014,06,14,12,08,16.80
2014,06,14,12,09,16.80
2014,06,14,12,10,16.80
2014,06,14,12,11,16.80
2014,06,14,12,12,16.80
2014,06,14,12,13,16.90
2014,06,14,12,14,16.90
2014,06,14,12,15,17.00
2014,06,14,12,16,17.00
2014,06,14,12,17,17.10
2014,06,14,12,18,17.10
2014,06,14,12,19,17.20
2014,06,14,12,20,17.20
2014,06,14,12,21,17.30
2014,06,14,12,22,17.30
2014,06,14,12,23,17.40
2014,06,14,12,24,17.40
2014,06,14,12,25,17.40
2014,06,14,12,26,17.40
2014,06,14,12,27,17.30
2014,06,14,12,28,17.20
2014,06,14,12,29,17.10
2014,06,14,12,30,17.00
2014,06,14,12,31,16.90
2014,06,14,12,32,16.80
2014,06,14,12,33,16.80
2014,06,14,12,34,16.70
2014,06,14,12,35,16.70
2014,06,14,12,36,16.70
2014,06,14,12,37,16.70
2014,06,14,12,38,16.70
2014,06,14,12,39,16.70
2014,06,14,12,40,16.70
2014,06,14,12,41,16.70
2014,06,14,12,42,16.70
2014,06,14,12,43,16.60
2014,06,14,12,44,16.60
2014,06,14,12,45,16.60
2014,06,14,12,46,16.50
2014,06,14,12,47,16.50
2014,06,14,12,48,16.40
2014,06,14,12,49,16.40
2014,06,14,12,50,16.30
2014,06,14,12,51,16.30
2014,06,14,12,52,16.30
2014,06,14,12,53,16.30
2014,06,14,12,54,16.30
2014,06,14,12,55,16.30
2014,06,14,12,56,16.20
2014,06,14,12,57,16.20
2014,06,14,12,58,16.20
2014,06,14,12,59,16.20
2014,06,14,13,00,16.20
2014,06,14,13,01,16.20
2014,06,14,13,02,16.20
2014,06,14,13,03,16.10
2014,06,14,13,04,16.10
2014,06,14,13,05,16.10
2014,06,14,13,06,16.20
2014,06,14,13,07,16.20
2014,06,14,13,08,16.20
2014,06,14,13,09,16.20
2014,06,14,13,10,16.20
2014,06,14,13,11,16.20
2014,06,14,13,12,16.20
2014,06,14,13,13,16.20
2014,06,14,13,14,16.20
2014,06,14,13,15,16.20
2014,06,14,13,16,16.20
2014,06,14,13,17,16.20
2014,06,14,13,18,16.20
2014,06,14,13,19,16.20
2014,06,14,13,20,16.20
2014,06,14,13,21,16.20
2014,06,14,13,22,16.10
2014,06,14,13,23,16.10
2014,06,14,13,24,16.10
2014,06,14,13,25,16.00
2014,06,14,13,26,16.00
2014,06,14,13,27,15.90
2014,06,14,13,28,15.90
2014,06,14,13,29,15.90
2014,06,14,13,30,15.90
2014,06,14,13,31,15.80
2014,06,14,13,32,15.80
2014,06,14,13,33,15.80
2014,06,14,13,34,15.80
2014,06,14,13,35,15.80
2014,06,14,13,36,15.80
2014,06,14,13,37,15.80
2014,06,14,13,38,15.70
2014,06,14,13,39,15.70
2014,06,14,13,40,15.70
2014,06,14,13,41,15.70
2014,06,14,13,42,15.70
2014,06,14,13,43,15.70
2014,06,14,13,44,15.70
2014,06,14,13,45,15.70
2014,06,14,13,46,15.70
2014,06,14,13,47,15.70
2014,06,14,13,48,15.70
2014,06,14,13,49,15.60
2014,06,14,13,50,15.60
2014,06,14,13,51,15.60
2014,06,14,13,52,15.60
2014,06,14,13,53,15.60
2014,06,14,13,54,15.60
2014,06,14,13,55,15.60
2014,06,14,13,56,15.60
2014,06,14,13,57,15.60
2014,06,14,13,58,15.60
2014,06,14,13,59,15.60
2014,06,14,14,00,15.60
2014,06,14,14,01,15.60
2014,06,14,14,02,15.60
2014,06,14,14,03,15.60
2014,06,14,14,04,15.50
2014,06,14,14,05,15.50
2014,06,14,14,06,15.50
2014,06,14,14,07,15.50
2014,06,14,14,08,15.50
2014,06,14,14,09,15.50
2014,06,14,14,10,15.50
2014,06,14,14,11,15.50
2014,06,14,14,12,15.50
2014,06,14,14,13,15.50
2014,06,14,14,14,15.50
2014,06,14,14,15,15.50
2014,06,14,14,16,15.50
2014,06,14,14,17,15.50
2014,06,14,14,18,15.50
2014,06,14,14,19,15.50
2014,06,14,14,20,15.60
2014,06,14,14,21,15.60
2014,06,14,14,22,15.60
2014,06,14,14,23,15.50
2014,06,14,14,24,15.50
2014,06,14,14,25,15.50
2014,06,14,14,26,15.50
2014,06,14,14,27,15.50
2014,06,14,14,28,15.50
2014,06,14,14,29,15.50
2014,06,14,14,30,15.60
2014,06,14,14,31,15.60
2014,06,14,14,32,15.60
2014,06,14,14,33,15.50
2014,06,14,14,34,15.50
2014,06,14,14,35,15.50
2014,06,14,14,36,15.50
2014,06,14,14,37,15.50
2014,06,14,14,38,15.50
2014,06,14,14,39,15.50
2014,06,14,14,40,15.50
2014,06,14,14,41,15.50
2014,06,14,14,42,15.50
2014,06,14,14,43,15.50
2014,06,14,14,44,15.50
2014,06,14,14,45,15.50
2014,06,14,14,46,15.50
2014,06,14,14,47,15.50
2014,06,14,14,48,15.40
2014,06,14,14,49,15.40
2014,06,14,14,50,15.40
2014,06,14,14,51,15.40
2014,06,14,14,52,15.40
2014,06,14,14,53,15.40
2014,06,14,14,54,15.40
2014,06,14,14,55,15.40
2014,06,14,14,56,15.40
2014,06,14,14,57,15.40
2014,06,14,14,58,15.40
2014,06,14,14,59,15.40
2014,06,14,15,00,15.40
2014,06,14,15,01,15.40
2014,06,14,15,02,15.40
2014,06,14,15,03,15.40
2014,06,14,15,04,15.40
2014,06,14,15,05,15.40
2014,06,14,15,06,15.40
2014,06,14,15,07,15.40
2014,06,14,15,08,15.30
2014,06,14,15,09,15.30
2014,06,14,15,10,15.30
2014,06,14,15,11,15.30
2014,06,14,15,12,15.30
2014,06,14,15,13,15.30
2014,06,14,15,14,15.30
2014,06,14,15,15,15.30
2014,06,14,15,16,15.30
2014,06,14,15,17,15.30
2014,06,14,15,18,15.30
2014,06,14,15,19,15.30
2014,06,14,15,20,15.30
2014,06,14,15,21,15.20
2014,06,14,15,22,15.20
2014,06,14,15,23,15.20
2014,06,14,15,24,15.20
2014,06,14,15,25,15.20
2014,06,14,15,26,15.20
2014,06,14,15,27,15.20
2014,06,14,15,28,15.20
2014,06,14,15,29,15.20
2014,06,14,15,30,15.20
2014,06,14,15,31,15.20
2014,06,14,15,32,15.20
2014,06,14,15,33,15.30
2014,06,14,15,34,15.30
2014,06,14,15,35,15.30
2014,06,14,15,36,15.30
2014,06,14,15,37,15.30
2014,06,14,15,38,15.30
2014,06,14,15,39,15.30
2014,06,14,15,40,15.30
2014,06,14,15,41,15.30
2014,06,14,15,42,15.30
2014,06,14,15,43,15.30
2014,06,14,15,44,15.40
2014,06,14,15,45,15.40
2014,06,14,15,46,15.40
2014,06,14,15,47,15.40
2014,06,14,15,48,15.40
2014,06,14,15,49,15.40
2014,06,14,15,50,15.40
2014,06,14,15,51,15.40
2014,06,14,15,52,15.40
2014,06,14,15,53,15.40
2014,06,14,15,54,15.40
2014,06,14,15,55,15.40
2014,06,14,15,56,15.40
2014,06,14,15,57,15.40
2014,06,14,15,58,15.40
2014,06,14,15,59,15.40
2014,06,14,16,00,15.40
2014,06,14,16,01,15.40
2014,06,14,16,02,15.40
2014,06,14,16,03,15.40
2014,06,14,16,04,15.40
2014,06,14,16,05,15.40
2014,06,14,16,06,15.40
2014,06,14,16,07,15.40
2014,06,14,16,08,15.40
2014,06,14,16,09,15.40
2014,06,14,16,10,15.40
2014,06,14,16,11,15.40
2014,06,14,16,12,15.40
2014,06,14,16,13,15.40
2014,06,14,16,14,15.40
2014,06,14,16,15,15.40
2014,06,14,16,16,15.40
2014,06,14,16,17,15.50
2014,06,14,16,18,15.50
2014,06,14,16,19,15.40
2014,06,14,16,20,15.40
2014,06,14,16,21,15.40
2014,06,14,16,22,15.40
2014,06,14,16,23,15.40
2014,06,14,16,24,15.40
2014,06,14,16,25,15.40
2014,06,14,16,26,15.40
2014,06,14,16,27,15.40
2014,06,14,16,28,15.40
2014,06,14,16,29,15.40
2014,06,14,16,30,15.40
2014,06,14,16,31,15.40
2014,06,14,16,32,15.40
2014,06,14,16,33,15.40
2014,06,14,16,34,15.40
2014,06,14,16,35,15.40
2014,06,14,16,36,15.40
2014,06,14,16,37,15.40
2014,06,14,16,38,15.40
2014,06,14,16,39,15.40
2014,06,14,16,40,15.30
2014,06,14,16,41,15.30
2014,06,14,16,42,15.30
2014,06,14,16,43,15.30
2014,06,14,16,44,15.30
2014,06,14,16,45,15.30
2014,06,14,16,46,15.30
2014,06,14,16,47,15.30
2014,06,14,16,48,15.30
2014,06,14,16,49,15.30
2014,06,14,16,50,15.30
2014,06,14,16,51,15.20
2014,06,14,16,52,15.20
2014,06,14,16,53,15.20
2014,06,14,16,54,15.20
2014,06,14,16,55,15.20
2014,06,14,16,56,15.20
2014,06,14,16,57,15.20
2014,06,14,16,58,15.20
2014,06,14,16,59,15.20
2014,06,14,17,00,15.20
2014,06,14,17,01,15.30
2014,06,14,17,02,15.30
2014,06,14,17,03,15.30
2014,06,14,17,04,15.30
2014,06,14,17,05,15.30
2014,06,14,17,06,15.30
2014,06,14,17,07,15.40
2014,06,14,17,08,15.40
2014,06,14,17,09,15.40
2014,06,14,17,10,15.40
2014,06,14,17,11,15.40
2014,06,14,17,12,15.40
2014,06,14,17,13,15.50
2014,06,14,17,14,15.50
2014,06,14,17,15,15.50
2014,06,14,17,16,15.50
2014,06,14,17,17,15.50
2014,06,14,17,18,15.50
2014,06,14,17,19,15.50